Regional Weather Roundup
Issued by NWS

Home | Current Version | Previous Version | Graphics & Text | Print | Product List | Glossary On
Versions: 1 2 3 4 5 6 7 8 9 10 11 12 13 14 15 16 17 18 19 20 21 22 23 24 25 26 27 28 29 30 31 32 33 34 35 36 37 38 39 40 41 42 43 44 45 46 47 48 49 50
000
ASUS43 KBIS 261002
RWRND

NORTH DAKOTA REGIONAL WEATHER ROUNDUP
NATIONAL WEATHER SERVICE BISMARCK ND
500 AM CDT SUN MAR 26 2017

NOTE: "FAIR" INDICATES FEW OR NO CLOUDS BELOW 12,000 FEET WITH NO
SIGNIFICANT WEATHER AND/OR OBSTRUCTIONS TO VISIBILITY.


NDZ001>003-009>011-017-261100-
NORTHWEST NORTH DAKOTA

CITY           SKY/WX    TMP DP  RH WIND       PRES   REMARKS
WILLISTON      FAIR      42  33  70 CALM      29.89F
MINOT          MOCLDY    39  34  82 W5        29.89F
MINOT AFB      PTCLDY    34  32  94 W6        29.88F
$$

NDZ018>021-031>035-040>046-261100-
SOUTHWEST NORTH DAKOTA

CITY           SKY/WX    TMP DP  RH WIND       PRES   REMARKS
BISMARCK       CLOUDY    38  34  85 SE5       29.93F
DICKINSON      CLOUDY    41  36  82 SE7       29.88F
GARRISON         N/A     36  32  85 CALM      29.89F
HETTINGER ARPT MOCLDY    38  32  79 N3        29.90S
$$

NDZ004>008-012>016-024-026-027-054-261100-
NORTHEAST NORTH DAKOTA

CITY           SKY/WX    TMP DP  RH WIND       PRES   REMARKS
GRAND FORKS    CLOUDY    35  34  96 S8        29.96F
GRND FRKS AFB  CLOUDY    34  33  99 S9        29.96F
DEVILS LAKE    CLOUDY    34  32  92 SE6       29.93F
$$

NDZ022-023-025-028>030-036>039-047>053-261100-
SOUTHEAST NORTH DAKOTA

CITY           SKY/WX    TMP DP  RH WIND       PRES   REMARKS
FARGO          CLOUDY    34  33  96 CALM      29.98F
JAMESTOWN      FOG       33  33 100 S5        29.93F VSB 1/4
$$





USA.gov is the U.S. government's official web portal to all federal, state and local government web resources and services.